Wind_Speed
28 28 29 30 31 31 28 25 25 24 24 23 23 22 22 22 22 22 20 19 19 18 18 17 17 16 16 15 15 14 14 13 13 12 11 11 10 9 9 8 7 7 6 6 6 5 5 4 4
30 31 31 32 33 32 29 27 27 27 27 26 25 25 24 24 24 23 21 21 20 20 19 19 18 18 18 17 16 15 15 15 14 13 13 12 11 10 10 9 8 7 7 6 6 6 5 5 5
32 33 34 35 34 32 30 29 29 29 29 28 28 27 27 26 25 24 23 23 22 22 21 21 20 20 19 19 18 17 16 16 15 15 14 13 13 12 11 10 9 8 7 7 7 7 6 6 6
34 35 36 37 35 33 32 32 32 31 31 31 31 30 30 28 27 26 25 25 24 23 23 23 22 22 21 21 20 19 18 17 17 16 15 14 14 13 13 11 11 10 9 8 8 8 7 7 7
36 37 39 39 37 35 34 35 34 34 34 34 33 32 32 30 30 29 28 27 26 25 25 24 24 23 23 22 22 21 20 19 18 17 16 16 15 15 14 13 12 12 11 10 9 8 8 8 7
37 39 40 40 38 37 36 37 37 37 36 36 35 34 34 33 32 31 30 29 28 27 27 26 26 25 24 24 23 23 22 21 20 19 18 17 17 16 15 15 14 13 12 11 11 10 9 9 8
39 41 41 40 39 38 38 39 39 40 38 37 38 37 36 35 33 32 32 32 30 29 29 28 27 26 26 25 25 24 23 23 22 21 20 19 18 17 16 16 15 14 13 12 12 11 10 10 9
41 43 43 42 41 40 40 41 41 42 41 40 40 39 38 37 35 35 34 33 32 31 31 29 29 28 27 27 26 26 25 24 23 22 21 21 20 19 18 17 16 15 15 14 13 12 11 11 10
42 44 44 43 44 43 43 43 44 44 43 42 42 42 40 39 38 37 36 35 34 33 32 31 30 30 29 28 28 27 26 26 25 24 23 22 21 21 20 19 17 16 16 15 14 13 13 12 11
44 45 44 44 45 46 46 46 46 46 45 44 44 44 43 42 40 39 38 37 36 35 34 33 32 31 31 30 29 29 28 27 26 25 25 24 23 22 21 20 19 17 17 16 16 15 14 13 12
45 45 44 45 46 47 48 48 48 48 47 47 47 46 46 44 42 42 41 39 38 37 37 35 34 33 33 32 31 30 29 28 27 27 26 25 24 23 23 21 20 19 18 17 17 16 15 15 14
44 45 46 46 47 48 48 49 50 50 50 50 49 48 48 47 45 44 43 42 41 40 39 38 36 35 34 33 33 32 31 30 29 28 27 27 26 25 24 23 22 21 20 19 18 17 16 16 15
44 45 46 46 48 49 50 50 51 51 51 52 51 50 50 49 47 46 45 44 43 43 42 40 39 38 36 35 34 33 32 31 30 30 29 28 27 27 26 25 24 22 21 20 20 19 18 17 17
43 44 45 46 47 48 49 50 51 51 51 52 53 52 51 50 49 48 47 46 46 45 44 42 41 40 38 37 36 34 33 33 32 31 30 29 29 28 28 27 26 24 23 22 21 20 20 19 18
41 42 44 44 45 45 47 47 47 48 50 51 52 53 53 52 51 49 48 47 47 46 45 44 44 42 41 39 38 36 35 34 34 33 32 31 31 29 29 28 27 26 24 24 23 22 21 20 19
38 39 40 40 42 43 45 45 44 46 48 50 51 53 53 53 52 51 49 48 48 47 46 45 45 44 43 41 40 38 37 36 35 34 34 33 33 32 31 29 28 27 26 25 24 24 22 21 21
35 36 36 36 39 41 44 44 43 45 46 47 49 51 52 52 52 51 50 49 48 48 47 46 47 46 45 43 42 41 39 37 37 36 35 34 34 34 33 31 30 28 27 27 26 25 24 24 23
32 32 33 34 36 38 42 43 43 45 46 46 47 48 50 51 51 51 51 51 49 48 48 47 48 48 47 45 44 43 41 39 39 38 37 36 35 35 34 33 32 30 29 29 28 27 26 26 25
31 32 33 34 34 37 40 42 42 43 45 46 47 47 48 50 51 51 52 52 51 50 48 49 48 48 48 47 46 44 43 41 40 40 39 38 37 36 36 35 34 32 31 30 29 29 28 27 27
30 32 32 32 34 36 38 40 40 41 44 45 46 46 47 49 51 52 52 52 52 51 50 50 49 49 49 48 47 46 44 43 42 41 40 39 38 38 38 37 36 35 33 32 32 31 30 29 29
29 31 31 32 33 36 38 40 40 40 42 44 45 46 46 47 49 51 51 52 53 53 51 51 50 50 50 49 48 48 46 45 44 41 41 41 41 40 40 39 38 37 36 35 34 33 32 31 30
28 28 30 30 32 33 35 38 38 39 40 43 44 45 46 46 48 50 51 52 53 53 52 52 51 51 51 51 50 49 47 46 45 44 42 42 43 43 42 41 40 39 38 37 36 35 34 33 32
26 26 27 29 31 33 34 36 36 37 39 41 42 43 45 47 48 49 51 51 52 53 53 53 52 52 52 52 51 50 48 48 47 46 44 43 43 43 42 41 41 41 40 39 37 37 36 35 34
24 25 25 27 29 30 31 34 34 35 37 38 40 42 43 44 46 48 50 50 51 52 53 53 53 52 52 52 52 51 50 49 48 47 47 45 45 44 44 43 42 41 40 40 40 39 39 38 37
24 24 24 25 28 29 28 32 33 32 33 36 38 40 41 42 43 45 48 49 50 51 52 53 53 53 52 52 52 52 51 50 49 48 48 47 47 46 45 44 44 42 41 40 40 40 40 39 38
23 23 23 24 25 26 26 28 28 29 31 34 36 38 40 41 42 44 46 48 49 50 51 53 53 53 53 52 52 53 52 51 50 50 49 48 48 48 47 46 45 44 42 42 41 41 40 40 39
21 21 22 23 24 25 25 26 27 28 29 31 34 36 37 40 41 43 45 46 47 47 48 51 52 52 52 53 52 52 52 52 52 52 51 49 48 49 49 48 47 46 45 43 42 42 41 41 41
20 20 20 21 23 25 25 25 26 27 28 29 31 34 35 37 40 41 43 44 46 47 47 49 52 52 52 51 52 52 52 52 52 53 52 51 50 49 49 49 48 47 46 45 44 43 42 42 42
20 20 20 21 22 23 24 24 24 25 26 27 29 32 34 35 37 39 40 42 44 46 47 48 49 51 52 52 53 52 51 52 53 53 52 51 49 49 50 49 48 48 47 46 46 45 44 43 44
19 20 20 21 21 21 22 22 23 24 25 27 28 30 31 33 35 37 39 40 42 45 46 47 48 48 49 49 50 52 51 51 52 53 53 52 51 50 50 50 50 49 49 48 47 46 45 45 45
Wind_Direction
248 247 247 247 247 247 246 245 244 242 242 242 243 243 242 243 242 242 240 237 234 234 233 232 228 227 226 225 221 222 222 220 218 216 215 215 214 213 215 215 214 210 208 207 205 202 199 190 185
249 249 247 247 247 248 247 246 244 243 243 242 244 244 243 243 243 244 241 238 236 235 234 234 231 229 228 228 225 224 225 224 222 220 218 216 217 218 219 219 217 215 210 208 208 205 203 200 194
250 249 249 248 248 249 248 247 245 244 244 244 245 244 243 243 243 244 242 239 237 237 236 235 233 231 230 231 231 228 227 227 225 224 222 220 219 222 223 223 221 220 217 215 211 210 210 210 209
251 250 250 250 249 249 249 248 247 247 245 245 245 244 243 243 243 242 242 240 238 237 236 235 234 233 232 232 233 232 231 229 228 227 226 225 224 225 226 225 226 225 222 221 219 217 219 218 219
251 251 251 251 250 249 249 247 246 247 245 245 245 244 243 242 242 241 242 241 239 237 236 236 235 235 233 233 233 234 233 231 230 230 230 228 228 228 229 228 228 227 226 226 226 225 226 226 226
252 251 251 251 251 250 249 247 246 246 246 245 244 243 243 242 241 241 242 242 240 238 237 236 235 235 234 234 234 234 234 233 232 232 232 231 230 230 230 230 230 229 229 230 230 229 230 229 230
254 253 253 253 252 251 249 248 247 246 245 245 244 243 242 242 240 239 240 240 240 238 236 236 235 235 234 235 235 234 234 235 233 232 232 232 231 231 231 231 231 231 231 232 231 231 232 232 233
255 255 254 253 252 251 249 249 248 247 246 245 244 243 242 242 240 239 239 239 239 238 236 235 234 235 234 234 235 234 234 234 233 232 232 232 232 232 231 231 232 232 232 233 234 233 233 235 236
256 255 254 253 253 252 250 249 248 247 247 245 244 243 243 242 241 240 239 239 238 237 236 235 234 234 234 234 234 234 234 234 233 232 233 233 233 233 232 232 232 233 234 234 236 236 237 239 240
256 256 256 255 253 252 250 249 247 246 246 245 243 243 242 242 240 240 239 238 237 236 235 235 235 234 234 233 233 234 235 235 234 233 233 233 233 233 232 233 233 234 234 236 237 238 239 241 242
259 258 257 255 254 252 250 248 247 246 245 245 244 242 243 242 241 240 238 237 237 236 235 235 235 234 234 234 234 234 235 235 234 234 233 232 232 232 232 234 236 235 235 236 238 239 240 242 244
262 260 258 256 254 252 250 248 246 245 245 244 244 243 243 242 241 240 238 237 236 236 236 236 236 234 234 234 234 235 235 234 234 233 233 233 233 233 233 234 237 237 237 238 239 240 242 243 245
264 261 258 256 254 253 251 249 247 245 244 244 243 242 241 242 240 239 238 237 236 236 236 236 236 235 233 233 234 234 234 233 233 233 233 234 234 235 234 235 237 238 238 239 240 240 242 244 246
265 261 258 256 254 252 250 249 247 245 244 244 243 242 240 239 239 238 237 236 235 235 235 235 235 234 233 233 233 233 233 232 232 232 233 234 234 234 234 235 238 238 238 239 241 242 243 244 246
267 262 258 255 253 250 249 248 247 246 245 243 242 240 238 237 237 237 236 236 235 235 235 235 234 234 234 233 233 233 233 232 233 232 233 234 235 234 235 236 236 238 238 239 240 242 243 245 246
266 262 258 255 254 251 249 248 248 247 246 243 241 239 237 236 235 235 235 235 235 234 234 234 233 233 234 233 233 233 233 234 234 232 233 235 236 236 236 236 236 237 238 239 240 243 244 246 248
266 261 258 256 256 254 251 249 247 247 245 243 241 239 238 236 234 234 234 234 233 233 233 233 232 231 233 233 232 233 233 234 234 234 234 235 236 236 235 235 235 237 239 240 241 243 245 247 249
267 262 260 259 259 256 253 251 248 246 245 243 242 240 239 237 235 233 232 232 232 232 232 232 231 230 231 232 233 233 234 235 235 235 235 236 235 236 236 235 235 236 239 241 243 244 246 248 251
268 264 262 261 262 259 256 253 249 246 245 243 241 240 239 237 234 233 231 231 230 230 231 230 230 230 230 231 232 233 234 234 235 236 236 235 235 236 236 236 236 237 239 242 244 245 246 249 251
269 266 264 264 262 260 258 254 250 248 245 243 242 240 239 237 234 232 230 230 229 229 230 230 230 230 230 230 232 233 234 234 235 236 236 236 236 237 237 237 237 238 240 242 245 246 247 249 251
270 267 266 267 264 261 260 256 251 249 246 244 242 240 239 237 235 233 230 230 229 229 229 230 231 230 230 230 232 233 233 234 235 236 236 236 237 237 238 238 238 239 242 244 246 248 249 250 252
272 270 268 266 264 261 260 259 252 250 247 244 242 241 239 237 235 234 231 229 229 229 229 229 231 231 230 230 231 232 233 233 234 236 236 237 237 237 238 238 239 240 242 244 246 248 249 250 252
272 271 269 265 263 263 260 260 256 251 248 245 242 241 240 238 236 234 232 229 229 229 229 229 230 232 232 231 231 231 232 234 234 236 236 236 236 236 237 239 240 242 243 244 246 249 250 250 252
274 272 269 266 264 264 261 260 258 253 251 248 245 241 240 238 237 235 233 231 230 229 228 228 228 230 231 231 231 232 233 234 235 237 238 236 237 238 238 239 241 242 244 246 247 249 250 251 252
274 274 272 267 263 264 261 260 260 256 252 250 246 242 239 237 236 234 233 232 230 229 228 228 228 230 231 231 232 233 234 234 235 236 238 237 237 238 239 240 241 243 245 247 248 250 250 251 252
276 276 273 270 265 263 261 260 259 257 252 250 246 242 238 237 236 234 231 231 230 229 228 228 228 230 231 232 233 234 235 235 236 237 238 239 238 239 240 241 242 243 245 247 248 250 249 251 252
277 274 273 269 266 265 264 262 259 257 255 252 247 241 237 235 235 234 232 230 229 229 228 228 228 230 231 232 234 235 236 236 237 237 238 239 240 240 240 241 243 244 245 246 248 249 250 251 253
274 273 271 270 269 267 265 264 260 258 256 254 249 243 238 235 235 235 233 231 230 229 229 228 229 230 230 231 233 235 235 236 237 237 238 239 240 240 241 242 243 244 245 247 249 250 251 253 254
272 268 268 269 269 268 268 264 261 259 258 256 252 246 240 236 234 233 232 231 230 230 229 229 229 230 231 232 233 235 236 236 237 237 237 239 240 241 241 242 243 244 245 247 250 251 252 254 256
274 269 266 265 264 264 267 265 261 259 258 256 252 247 240 235 233 232 230 231 232 231 230 230 230 230 231 232 233 234 236 236 236 237 238 238 239 241 241 242 244 246 247 249 251 252 253 254 256
Height
5805 5806 5808 5809 5811 5812 5815 5819 5821 5822 5824 5826 5827 5829 5831 5833 5834 5837 5837 5837 5840 5841 5843 5844 5846 5848 5849 5851 5852 5854 5855 5856 5857 5858 5859 5860 5861 5862 5863 5864 5865 5865 5866 5866 5867 5868 5868 5869 5869
5799 5801 5802 5804 5805 5807 5811 5814 5816 5818 5820 5822 5823 5825 5827 5828 5829 5831 5833 5835 5836 5838 5840 5842 5844 5845 5847 5849 5850 5852 5853 5854 5855 5857 5858 5859 5860 5861 5862 5863 5864 5865 5865 5866 5867 5867 5868 5869 5869
5793 5794 5796 5797 5799 5803 5807 5809 5810 5812 5814 5817 5819 5821 5823 5824 5826 5828 5829 5831 5833 5835 5837 5839 5841 5842 5844 5846 5848 5849 5851 5852 5853 5855 5856 5857 5859 5860 5861 5862 5863 5864 5864 5865 5866 5867 5867 5868 5869
5787 5788 5789 5791 5794 5798 5801 5803 5804 5807 5809 5811 5813 5816 5818 5820 5822 5824 5826 5827 5830 5832 5834 5835 5837 5839 5841 5843 5845 5847 5848 5850 5851 5853 5854 5855 5857 5858 5859 5860 5861 5863 5864 5864 5865 5866 5867 5867 5868
5779 5780 5782 5784 5788 5792 5794 5796 5798 5800 5803 5805 5807 5810 5812 5815 5817 5819 5821 5823 5826 5828 5830 5832 5834 5836 5838 5840 5842 5844 5845 5847 5849 5850 5852 5853 5855 5856 5857 5859 5860 5861 5862 5863 5864 5865 5866 5867 5867
5771 5772 5774 5777 5782 5785 5787 5789 5791 5793 5795 5798 5801 5804 5806 5809 5811 5814 5816 5818 5821 5824 5826 5828 5830 5832 5834 5836 5838 5840 5842 5844 5846 5848 5849 5851 5852 5854 5855 5857 5858 5859 5860 5862 5863 5864 5865 5865 5866
5763 5764 5766 5770 5773 5776 5779 5781 5783 5785 5788 5791 5793 5796 5799 5802 5806 5808 5810 5813 5816 5818 5821 5823 5825 5828 5830 5832 5834 5836 5838 5840 5842 5844 5846 5848 5850 5851 5853 5855 5856 5857 5859 5860 5861 5862 5863 5864 5865
5753 5755 5757 5761 5763 5767 5770 5772 5774 5776 5780 5783 5785 5789 5792 5796 5799 5802 5804 5807 5810 5813 5816 5818 5821 5823 5825 5827 5830 5832 5834 5836 5839 5841 5843 5845 5847 5848 5850 5852 5853 5855 5857 5858 5859 5860 5861 5862 5863
5742 5745 5748 5752 5754 5757 5759 5761 5764 5766 5770 5774 5776 5780 5784 5788 5791 5795 5798 5801 5804 5807 5810 5813 5815 5818 5820 5823 5825 5828 5830 5832 5835 5837 5839 5841 5844 5845 5847 5849 5851 5853 5854 5855 5857 5858 5859 5861 5862
5731 5734 5739 5742 5743 5745 5748 5750 5753 5756 5759 5763 5767 5770 5774 5778 5783 5786 5790 5794 5797 5800 5803 5806 5809 5812 5815 5817 5820 5823 5825 5828 5830 5833 5835 5838 5840 5842 5844 5846 5848 5850 5851 5853 5854 5856 5857 5859 5860
5720 5723 5727 5728 5730 5731 5734 5738 5741 5744 5748 5753 5757 5761 5764 5769 5774 5778 5782 5785 5789 5793 5796 5799 5803 5806 5809 5811 5814 5817 5820 5823 5826 5828 5831 5833 5836 5838 5841 5843 5844 5846 5848 5850 5852 5853 5855 5856 5857
5708 5711 5712 5714 5715 5717 5720 5724 5727 5732 5736 5740 5745 5749 5753 5758 5764 5768 5772 5777 5781 5785 5788 5792 5795 5799 5802 5805 5808 5811 5814 5818 5820 5823 5826 5829 5832 5834 5837 5839 5841 5843 5845 5847 5849 5850 5852 5853 5855
5695 5697 5698 5700 5701 5704 5706 5710 5714 5718 5723 5727 5731 5737 5742 5747 5752 5757 5762 5766 5771 5776 5780 5784 5788 5791 5795 5798 5802 5805 5808 5812 5815 5818 5821 5824 5827 5830 5832 5835 5837 5839 5841 5843 5845 5847 5849 5850 5852
5682 5682 5684 5685 5686 5689 5692 5696 5699 5705 5709 5713 5718 5724 5729 5734 5740 5745 5751 5756 5761 5766 5770 5775 5779 5783 5787 5791 5795 5798 5802 5805 5809 5812 5816 5819 5822 5825 5827 5830 5832 5835 5837 5839 5841 5843 5845 5847 5848
5667 5668 5669 5671 5673 5675 5678 5682 5687 5692 5695 5700 5705 5710 5715 5721 5727 5733 5740 5745 5750 5755 5760 5766 5770 5775 5779 5783 5787 5791 5795 5799 5802 5806 5809 5813 5816 5819 5822 5825 5827 5830 5832 5835 5837 5839 5841 5843 5844
5654 5654 5656 5659 5660 5663 5667 5670 5676 5678 5682 5687 5692 5696 5702 5708 5715 5722 5728 5734 5740 5745 5750 5756 5761 5766 5770 5775 5780 5784 5788 5792 5796 5799 5803 5807 5810 5813 5816 5819 5822 5825 5828 5830 5833 5835 5837 5839 5840
5643 5643 5645 5648 5650 5651 5654 5658 5663 5666 5670 5675 5679 5684 5690 5696 5703 5709 5716 5723 5729 5735 5740 5746 5751 5756 5761 5766 5771 5776 5780 5784 5788 5792 5796 5800 5803 5806 5809 5813 5816 5819 5822 5825 5828 5830 5832 5834 5836
5634 5635 5636 5638 5640 5641 5642 5646 5651 5654 5658 5663 5667 5672 5678 5684 5691 5697 5704 5711 5718 5724 5730 5735 5741 5746 5752 5757 5762 5767 5772 5777 5781 5785 5788 5792 5795 5799 5803 5807 5810 5813 5817 5819 5822 5825 5827 5829 5831
5625 5626 5627 5630 5630 5630 5632 5635 5639 5642 5646 5651 5656 5661 5666 5672 5679 5685 5692 5699 5706 5713 5719 5725 5731 5737 5743 5748 5754 5759 5764 5769 5773 5777 5781 5784 5788 5792 5796 5800 5804 5807 5810 5813 5816 5819 5821 5823 5826
5617 5617 5619 5620 5621 5621 5622 5625 5628 5631 5634 5639 5644 5649 5654 5660 5667 5673 5680 5687 5695 5702 5709 5715 5721 5727 5733 5739 5745 5750 5755 5760 5765 5768 5772 5777 5781 5785 5789 5793 5797 5800 5804 5807 5810 5813 5815 5817 5820
5609 5610 5611 5612 5612 5612 5612 5615 5618 5621 5624 5628 5633 5638 5643 5649 5655 5662 5669 5676 5684 5691 5698 5705 5711 5717 5723 5730 5735 5740 5746 5751 5756 5760 5764 5768 5772 5777 5781 5785 5789 5793 5797 5800 5803 5806 5809 5811 5813
5602 5603 5603 5603 5602 5603 5604 5604 5610 5612 5615 5619 5623 5628 5633 5639 5644 5651 5658 5666 5673 5680 5688 5695 5701 5707 5714 5720 5726 5731 5737 5742 5748 5752 5756 5760 5764 5769 5773 5777 5782 5786 5789 5792 5796 5799 5801 5804 5806
5595 5595 5595 5595 5594 5595 5596 5596 5601 5603 5605 5609 5614 5619 5623 5628 5634 5640 5647 5655 5662 5670 5677 5684 5691 5697 5704 5709 5715 5720 5726 5732 5738 5743 5747 5751 5756 5760 5765 5769 5774 5778 5781 5785 5788 5791 5794 5796 5799
5589 5589 5588 5587 5586 5586 5588 5588 5590 5594 5597 5601 5605 5609 5614 5619 5624 5630 5637 5644 5651 5658 5666 5673 5680 5686 5693 5699 5705 5710 5716 5722 5727 5732 5737 5742 5747 5751 5756 5761 5765 5769 5773 5776 5780 5783 5786 5788 5791
5583 5582 5581 5580 5578 5579 5582 5581 5584 5587 5590 5592 5596 5600 5605 5610 5615 5621 5627 5633 5640 5647 5655 5662 5669 5676 5683 5689 5695 5701 5706 5711 5717 5722 5726 5731 5737 5742 5747 5751 5756 5760 5764 5768 5771 5774 5777 5779 5782
5576 5575 5575 5574 5573 5574 5575 5575 5579 5580 5582 5584 5587 5591 5595 5600 5606 5611 5617 5624 5630 5637 5644 5651 5659 5665 5672 5679 5685 5690 5695 5701 5706 5711 5716 5721 5727 5732 5737 5742 5746 5751 5755 5758 5761 5765 5767 5770 5773
5570 5570 5570 5569 5568 5568 5569 5571 5573 5573 5575 5577 5580 5583 5587 5592 5596 5602 5609 5615 5622 5628 5634 5641 5649 5655 5662 5668 5674 5679 5685 5690 5695 5700 5705 5710 5716 5722 5727 5732 5737 5741 5745 5748 5752 5755 5758 5761 5763
5565 5564 5564 5563 5562 5561 5563 5565 5566 5566 5569 5571 5573 5576 5579 5584 5589 5595 5601 5607 5613 5619 5625 5631 5638 5645 5651 5657 5663 5668 5673 5678 5683 5688 5695 5700 5706 5711 5717 5722 5726 5730 5734 5738 5741 5745 5748 5750 5753
5560 5559 5558 5557 5557 5557 5558 5561 5559 5560 5562 5563 5565 5568 5572 5577 5582 5588 5593 5599 5605 5610 5616 5622 5629 5634 5640 5647 5653 5658 5662 5667 5672 5678 5684 5690 5695 5700 5706 5711 5716 5720 5724 5728 5731 5734 5737 5740 5742
5554 5553 5553 5553 5553 5553 5553 5557 5554 5555 5556 5557 5559 5562 5566 5570 5575 5580 5585 5591 5596 5602 5607 5613 5619 5625 5630 5636 5642 5647 5652 5657 5662 5667 5673 5679 5684 5689 5694 5700 5705 5709 5713 5717 5720 5723 5726 5729 5731